Location: Melizzano
(41.1500°N, 14.5000°E)
Time: 04:47:54
(UTC+00:00)

Cosmos 1844 Rocket - Pass Details

Date: 11 May 2021
Orbit: 823 x 845 km, 71.0° (Epoch: 14 June)

Event Time Altitude Azimuth Distance (km) Brightness Sun altitude
Rises 18:36:15 0° 201° (SSW) 3,343 5.7 -5.3°
Reaches altitude 10° 18:38:40 10° 201° (SSW) 2,415 5.0 -5.7°
Maximum altitude 18:44:12 88° 116° (ESE) 831 2.7 -6.6°
Drops below altitude 10° 18:49:48 10° 24° (NNE) 2,439 5.2 -7.5°
Sets 18:52:15 0° 24° (NNE) 3,379 5.9 -7.9°
